DELTA 1 DEB, 7193

Orbit data source: Space-Track

DELTA 1 DEB, 7193 is space debris in SSO originally from a launch on Tue, 06 Nov 1973 UTC launched from the Air Force Western Test Range (AFWTR). Debris objects in space refer to the collection of defunct objects orbiting the Earth. Examples of debris include non-operational satellites, rocket bodies, and fragments generated from explosions, collisions, or faulty payload assembly.

Loading next visibility...
Identifier
7193, 1973-086FB
Orbit
SSO
Country
Flag of USUS
Related business
Manufacturer
Unknown
Mission
Spacecraft
Bus & Motor
Unknown
Mass
Unknown
Launch date (UTC)
1973-11-06 (53 years ago)
Launch vehicle
Unknown
Launch site
Air Force Western Test Range (AFWTR)
Object type
Payload
Rocket body
Debris
Shape & HBR
Unknown shape, 0.2 m
Radar Cross Section
Medium (>0.1 m² and <1 m²)

Expand to show TLE details & history
Last TLE update: 2 days ago

TLE from 2 days ago
0 DELTA 1 DEB
1 07193U 73086FB  26252.76221333 -.00000519  00000-0 -46553-2 0  9990
2 07193 101.8346 307.3703 0296377  43.6841  71.7565 12.09111555325010
Epoch: 2026-09-09T18:17Z
TLE epoch observation values (Epoch: 2026-09-09T18:17:35.231Z)
Latitude
59.23788°
Longitude
-115.32869°
Altitude
1,582.189 km
Speed
7.113 km/s
True Right ascension
09h 51m 30s
True Declination
59° 06' 08"
Sunlit
Object was in daylight at epoch
Visualization orbit readout
Latitude
Unknown
Longitude
Unknown
Altitude
Unknown
Speed
Unknown
Apparent Right ascension
Unknown
Apparent Declination
Unknown
Sunlit
N/A
Visualization observer readout
Local Sidereal Time
15:05:42
Azimuth
Unknown
Elevation
Unknown
Doppler factor
Unknown
Orbital elements
Apogee altitude
1,875.502 km
Perigee altitude
1,400.347 km
Semi-major axis
8,016.062 km
Eccentricity
0.02964
Inclination
101.8346°
RAAN
307.3703°
Arg. of periapsis
43.6841°
True anomaly
75.01808°
Mean anomaly
71.7565°
Eccentric anomaly
73.3837°
Mean motion
3.02414 °/min
Orbital period
119.04 mins
BSTAR
-0.0046553
Loading maneuver chart data...
Computing Atmospheric mass density...
Loading historical data...
Loading historical data...
Loading historical data...
Loading historical data...
Loading historical data...
Loading historical data...
Loading historical data...

Documentation

Showing up to 5 results
|